TimeEST,TemperatureF,Dew PointF,Humidity,Sea Level PressureIn,VisibilityMPH,Wind Direction,Wind SpeedMPH,Gust SpeedMPH,PrecipitationIn,Events,Conditions,WindDirDegrees,DateUTC
12:52 AM,8.1,-0.9,67,29.76,10.0,West,8.1,-,N/A,,Overcast,270,2013-02-18 05:52:00
1:52 AM,7.0,-2.0,67,29.79,10.0,West,11.5,17.3,N/A,,Overcast,270,2013-02-18 06:52:00
2:52 AM,7.0,-2.9,64,29.82,10.0,West,10.4,18.4,N/A,,Overcast,270,2013-02-18 07:52:00
3:52 AM,5.0,-5.1,63,29.86,10.0,West,11.5,18.4,N/A,,Overcast,270,2013-02-18 08:52:00
5:52 AM,3.9,-5.1,66,29.91,10.0,West,8.1,-,N/A,,Overcast,260,2013-02-18 10:52:00
6:52 AM,3.9,-6.0,64,29.94,10.0,WSW,9.2,-,N/A,,Overcast,250,2013-02-18 11:52:00
7:52 AM,3.9,-5.1,66,29.96,10.0,Variable,5.8,-,N/A,,Overcast,0,2013-02-18 12:52:00
9:13 AM,8.6,-5.8,52,29.91,10.0,West,17.3,24.2,N/A,,Overcast,260,2013-02-18 14:13:00
9:47 AM,10.4,-4.0,52,29.92,10.0,WSW,11.5,23.0,N/A,,Overcast,250,2013-02-18 14:47:00
9:52 AM,10.0,-2.9,56,30.00,10.0,WSW,10.4,-,N/A,,Overcast,250,2013-02-18 14:52:00
10:52 AM,12.9,-2.0,51,30.00,10.0,WSW,10.4,18.4,N/A,,Scattered Clouds,250,2013-02-18 15:52:00
11:52 AM,16.0,-2.0,45,30.00,10.0,West,13.8,21.9,N/A,,Clear,260,2013-02-18 16:52:00
12:52 PM,19.0,-2.0,40,29.98,10.0,West,11.5,24.2,N/A,,Clear,270,2013-02-18 17:52:00
1:52 PM,19.9,-5.1,33,29.99,10.0,WSW,12.7,25.3,N/A,,Clear,250,2013-02-18 18:52:00
2:52 PM,21.9,-9.0,25,30.01,10.0,WSW,12.7,23.0,N/A,,Clear,250,2013-02-18 19:52:00
3:52 PM,21.9,-9.9,24,30.03,10.0,West,11.5,-,N/A,,Clear,270,2013-02-18 20:52:00
4:52 PM,19.9,-9.9,26,30.07,10.0,SW,5.8,-,N/A,,Clear,230,2013-02-18 21:52:00
5:52 PM,17.1,-9.9,30,30.10,10.0,WSW,9.2,-,N/A,,Clear,250,2013-02-18 22:52:00
6:52 PM,14.0,-9.9,34,30.13,10.0,South,3.5,-,N/A,,Clear,190,2013-02-18 23:52:00
8:52 PM,6.1,-9.0,50,30.16,10.0,South,3.5,-,N/A,,Clear,180,2013-02-19 01:52:00
9:52 PM,1.9,-8.0,63,30.15,10.0,Calm,Calm,-,N/A,,Clear,0,2013-02-19 02:52:00
10:52 PM,-0.9,-9.0,69,30.15,10.0,Calm,Calm,-,N/A,,Clear,0,2013-02-19 03:52:00
11:52 PM,-2.0,-9.9,69,30.14,10.0,Calm,Calm,-,N/A,,Clear,0,2013-02-19 04:52:00